• In Uzbekistan
  • List of Countries
  • For 7 days
  • Water Temperature
  • Satellite Maps
  • Weather Map
  • Weather Widgets
  • user-avatar
    Login

    Hourly Weather Oxchuc

    Today, 20 February, Tuesday

    Time Temperature Precipitation Wind Pressure Humidity
    00:00 +12°C° 0 mm 1 mps 604 mmHg 84%
    01:00 +12°C° 0 mm 1 mps 604 mmHg 85%
    02:00 +11°C° 0 mm 1 mps 604 mmHg 85%
    03:00 +11°C° 0 mm 1 mps 604 mmHg 86%
    04:00 +11°C° 0 mm 1 mps 603 mmHg 86%
    05:00 +10°C° 0 mm 1 mps 603 mmHg 86%
    06:00 +10°C° 0 mm 1 mps 603 mmHg 86%
    07:00 +13°C° 0 mm 1 mps 605 mmHg 76%
    08:00 +16°C° 0 mm 1 mps 606 mmHg 66%
    09:00 +17°C° 0 mm 0 mps 608 mmHg 55%
    10:00 +21°C° 0 mm 1 mps 608 mmHg 50%
    11:00 +23°C° 0 mm 1 mps 609 mmHg 45%
    12:00 +24°C° 0 mm 1 mps 609 mmHg 40%
    13:00 +23°C° 0.3 mm 1 mps 608 mmHg 48%
    14:00 +22°C° 0.3 mm 1 mps 607 mmHg 56%
    15:00 +21°C° 0.3 mm 1 mps 606 mmHg 65%
    16:00 +19°C° 0.7 mm 1 mps 606 mmHg 69%
    17:00 +16°C° 0.7 mm 0 mps 605 mmHg 74%
    18:00 +14°C° 0.7 mm 0 mps 605 mmHg 79%
    19:00 +15°C° 0.1 mm 1 mps 605 mmHg 81%
    20:00 +14°C° 0.1 mm 1 mps 605 mmHg 83%
    21:00 +13°C° 0.1 mm 1 mps 605 mmHg 84%
    22:00 +13°C° 0 mm 1 mps 605 mmHg 84%
    23:00 +12°C° 0 mm 1 mps 605 mmHg 84%

    Tomorrow, 21 February, Wednesday

    Time Temperature Precipitation Wind Pressure Humidity
    00:00 +12°C° 0 mm 1 mps 606 mmHg 84%
    01:00 +12°C° 0 mm 1 mps 605 mmHg 85%
    02:00 +12°C° 0 mm 1 mps 605 mmHg 85%
    03:00 +11°C° 0 mm 1 mps 604 mmHg 85%
    04:00 +11°C° 0 mm 1 mps 604 mmHg 85%
    05:00 +11°C° 0 mm 1 mps 604 mmHg 84%
    06:00 +11°C° 0 mm 1 mps 604 mmHg 84%
    07:00 +13°C° 0 mm 1 mps 606 mmHg 76%
    08:00 +15°C° 0 mm 1 mps 607 mmHg 69%
    09:00 +19°C° 0 mm 1 mps 609 mmHg 62%
    10:00 +21°C° 0 mm 1 mps 609 mmHg 55%
    11:00 +22°C° 0 mm 1 mps 610 mmHg 48%
    12:00 +24°C° 0 mm 1 mps 610 mmHg 40%
    13:00 +23°C° 0 mm 1 mps 609 mmHg 42%
    14:00 +23°C° 0 mm 1 mps 609 mmHg 43%
    15:00 +23°C° 0 mm 1 mps 608 mmHg 45%
    16:00 +21°C° 0.1 mm 1 mps 607 mmHg 52%
    17:00 +19°C° 0.1 mm 1 mps 607 mmHg 59%
    18:00 +16°C° 0.1 mm 1 mps 606 mmHg 66%
    19:00 +15°C° 0 mm 1 mps 606 mmHg 71%
    20:00 +13°C° 0 mm 1 mps 606 mmHg 76%
    21:00 +12°C° 0 mm 1 mps 606 mmHg 81%
    22:00 +12°C° 0 mm 1 mps 606 mmHg 80%
    23:00 +12°C° 0 mm 1 mps 606 mmHg 79%

    Day after tomorrow, 22 February, Thursday

    Time Temperature Precipitation Wind Pressure Humidity
    00:00 +12°C° 0 mm 1 mps 606 mmHg 78%
    01:00 +11°C° 0 mm 1 mps 606 mmHg 79%
    02:00 +11°C° 0 mm 1 mps 605 mmHg 79%
    03:00 +10°C° 0 mm 1 mps 605 mmHg 80%
    04:00 +10°C° 0 mm 1 mps 605 mmHg 79%
    05:00 +10°C° 0 mm 1 mps 605 mmHg 78%
    06:00 +10°C° 0 mm 1 mps 605 mmHg 77%
    07:00 +12°C° 0 mm 1 mps 606 mmHg 70%
    08:00 +15°C° 0 mm 1 mps 608 mmHg 62%
    09:00 +18°C° 0 mm 1 mps 609 mmHg 55%
    10:00 +20°C° 0 mm 1 mps 610 mmHg 50%
    11:00 +22°C° 0 mm 1 mps 610 mmHg 45%
    12:00 +24°C° 0 mm 2 mps 611 mmHg 41%
    13:00 +23°C° 0 mm 2 mps 610 mmHg 42%
    14:00 +23°C° 0 mm 2 mps 609 mmHg 43%
    15:00 +23°C° 0 mm 2 mps 608 mmHg 44%
    16:00 +21°C° 0 mm 1 mps 607 mmHg 52%
    17:00 +19°C° 0 mm 1 mps 607 mmHg 59%
    18:00 +16°C° 0 mm 1 mps 606 mmHg 67%
    19:00 +15°C° 0 mm 1 mps 606 mmHg 71%
    20:00 +13°C° 0 mm 1 mps 606 mmHg 76%
    21:00 +12°C° 0 mm 1 mps 606 mmHg 81%
    22:00 +11°C° 0 mm 1 mps 606 mmHg 80%
    23:00 +11°C° 0 mm 1 mps 606 mmHg 78%

    23 February, Friday

    Time Temperature Precipitation Wind Pressure Humidity
    00:00 +11°C° 0 mm 1 mps 606 mmHg 77%
    01:00 +10°C° 0 mm 1 mps 605 mmHg 77%
    02:00 +10°C° 0 mm 1 mps 605 mmHg 77%
    03:00 +10°C° 0 mm 1 mps 605 mmHg 77%
    04:00 +10°C° 0 mm 1 mps 605 mmHg 78%
    05:00 +10°C° 0 mm 1 mps 605 mmHg 79%
    06:00 +10°C° 0 mm 1 mps 605 mmHg 80%
    07:00 +12°C° 0 mm 1 mps 606 mmHg 72%
    08:00 +15°C° 0 mm 1 mps 608 mmHg 63%
    09:00 +18°C° 0 mm 1 mps 609 mmHg 55%
    10:00 +20°C° 0 mm 1 mps 609 mmHg 50%
    11:00 +22°C° 0 mm 1 mps 610 mmHg 44%
    12:00 +24°C° 0 mm 2 mps 610 mmHg 38%
    13:00 +23°C° 0 mm 2 mps 609 mmHg 40%
    14:00 +23°C° 0 mm 2 mps 608 mmHg 41%
    15:00 +23°C° 0 mm 2 mps 608 mmHg 42%
    16:00 +21°C° 0.1 mm 1 mps 607 mmHg 52%
    17:00 +19°C° 0.1 mm 1 mps 606 mmHg 62%
    18:00 +16°C° 0.1 mm 1 mps 605 mmHg 71%
    19:00 +15°C° 0.1 mm 1 mps 605 mmHg 76%
    20:00 +13°C° 0.1 mm 1 mps 605 mmHg 81%
    21:00 +12°C° 0.1 mm 1 mps 605 mmHg 86%
    22:00 +12°C° 0 mm 1 mps 605 mmHg 85%
    23:00 +11°C° 0 mm 1 mps 605 mmHg 84%

    24 February, Saturday

    Time Temperature Precipitation Wind Pressure Humidity
    00:00 +11°C° 0 mm 1 mps 605 mmHg 83%
    01:00 +11°C° 0 mm 1 mps 604 mmHg 82%
    02:00 +10°C° 0 mm 1 mps 604 mmHg 81%
    03:00 +10°C° 0 mm 1 mps 603 mmHg 80%
    04:00 +10°C° 0 mm 1 mps 603 mmHg 80%
    05:00 +10°C° 0 mm 1 mps 603 mmHg 79%
    06:00 +10°C° 0 mm 1 mps 603 mmHg 79%
    07:00 +12°C° 0 mm 1 mps 605 mmHg 69%
    08:00 +15°C° 0 mm 1 mps 606 mmHg 59%
    09:00 +19°C° 0 mm 1 mps 608 mmHg 49%
    10:00 +21°C° 0 mm 1 mps 608 mmHg 44%
    11:00 +23°C° 0 mm 1 mps 608 mmHg 39%
    12:00 +25°C° 0 mm 1 mps 609 mmHg 34%
    13:00 +24°C° 0 mm 1 mps 608 mmHg 35%
    14:00 +24°C° 0 mm 1 mps 607 mmHg 37%
    15:00 +24°C° 0 mm 1 mps 606 mmHg 39%
    16:00 +22°C° 0.2 mm 1 mps 606 mmHg 49%
    17:00 +20°C° 0.2 mm 1 mps 605 mmHg 60%
    18:00 +16°C° 0.2 mm 0 mps 604 mmHg 71%
    19:00 +14°C° 0.4 mm 0 mps 604 mmHg 74%
    20:00 +13°C° 0.4 mm 0 mps 604 mmHg 78%
    21:00 +13°C° 0.4 mm 1 mps 604 mmHg 81%
    22:00 +13°C° 0 mm 1 mps 604 mmHg 82%
    23:00 +13°C° 0 mm 1 mps 604 mmHg 83%

    25 February, Sunday

    Time Temperature Precipitation Wind Pressure Humidity
    00:00 +12°C° 0 mm 1 mps 604 mmHg 85%
    01:00 +12°C° 0 mm 1 mps 604 mmHg 86%
    02:00 +12°C° 0 mm 1 mps 603 mmHg 87%
    03:00 +12°C° 0 mm 1 mps 603 mmHg 88%
    04:00 +11°C° 0 mm 1 mps 603 mmHg 88%
    05:00 +11°C° 0 mm 1 mps 603 mmHg 88%
    06:00 +11°C° 0 mm 1 mps 604 mmHg 88%
    07:00 +14°C° 0 mm 1 mps 605 mmHg 78%
    08:00 +15°C° 0 mm 0 mps 606 mmHg 67%
    09:00 +18°C° 0 mm 0 mps 608 mmHg 57%
    10:00 +21°C° 0 mm 1 mps 608 mmHg 52%
    11:00 +23°C° 0 mm 1 mps 608 mmHg 46%
    12:00 +24°C° 0 mm 1 mps 609 mmHg 41%
    13:00 +23°C° 0.2 mm 1 mps 608 mmHg 45%
    14:00 +23°C° 0.2 mm 1 mps 607 mmHg 49%
    15:00 +22°C° 0.2 mm 1 mps 606 mmHg 53%
    16:00 +20°C° 0.4 mm 1 mps 606 mmHg 61%
    17:00 +18°C° 0.4 mm 1 mps 605 mmHg 70%
    18:00 +15°C° 0.4 mm 1 mps 605 mmHg 78%
    19:00 +14°C° 0.1 mm 1 mps 605 mmHg 82%
    20:00 +13°C° 0.1 mm 1 mps 605 mmHg 85%
    21:00 +12°C° 0.1 mm 1 mps 605 mmHg 89%
    22:00 +12°C° 0 mm 1 mps 605 mmHg 88%
    23:00 +12°C° 0 mm 1 mps 604 mmHg 87%
    Show more